OBJECT V, 59072

Orbit data source: Space-Track

You're viewing an Uncataloged Satellite

Recently launched and/or uncataloged satellites may have evolving metadata. Metadata may include but not limited to: Owner, Maufacturer, Bus, Motor, and Mission.

OBJECT V, 59072 is a satellite in LEO that was launched on Thu, 29 Feb 2024 UTC via a SOYUZ-2-1B launch vehicle from the Vostochny Cosmodrome (VOSTO). Unknown objects in Earth's orbit typically refer to objects detected orbiting the Earth but have not yet been identified or cataloged. These objects could be anything from previously untracked satellites, spent rocket stages, debris from satellite collisions, or even natural meteoroids temporarily captured by Earth's gravity.

Loading next visibility...
Identifier
59072, 2024-039V
Orbit
LEO
Country
Flag of TBDTBD
Related business
Manufacturer
NPO PM
Mission
Operational Commercial Communications
Bus & Motor
MARAFON, Unknown motor
Mass
50 kg wet, 50 kg dry
Launch date (UTC)
2024-02-29 (2 years ago)
Launch vehicle
SOYUZ-2-1B
Launch site
Vostochny Cosmodrome (VOSTO)
Object type
Unknown
Shape & HBR
Box, 0.3 m
Radar Cross Section
0.255 m², Medium (>0.1 m² and < 1m²)

Expand to show TLE details & history
Last TLE update: 5 hours ago

TLE from 5 hours ago
0 OBJECT V
1 59072U 24039V   26169.61610378  .00000210  00000-0  54656-4 0  9990
2 59072  88.9830 283.6761 0015499 339.6903  20.3683 14.46011541121390
Epoch: 2026-06-18T14:47Z
TLE epoch observation values (Epoch: 2026-06-18T14:47:11.366Z)
Latitude
-0.00004°
Longitude
155.02186°
Altitude
731.454 km
Speed
7.495 km/s
True Right ascension
18h 54m 42s
True Declination
0° 00' 00"
Sunlit
Object was in full shadow at epoch
Visualization orbit readout
Latitude
Unknown
Longitude
Unknown
Altitude
Unknown
Speed
Unknown
Apparent Right ascension
Unknown
Apparent Declination
Unknown
Sunlit
N/A
Visualization observer readout
Local Sidereal Time
06:45:14
Azimuth
Unknown
Elevation
Unknown
Doppler factor
Unknown
Orbital elements
Apogee altitude
746.645 km
Perigee altitude
724.594 km
Semi-major axis
7,113.756 km
Eccentricity
0.00155
Inclination
88.983°
RAAN
283.6761°
Arg. of periapsis
339.6903°
True anomaly
20.43023°
Mean anomaly
20.3683°
Eccentric anomaly
20.39925°
Mean motion
3.61738 °/min
Orbital period
99.52 mins
BSTAR
0.000054656
Loading maneuver chart data...
Computing Atmospheric mass density...
Loading historical data...
Loading historical data...
Loading historical data...
Loading historical data...
Loading historical data...
Loading historical data...
Loading historical data...

Documentation

Showing up to 5 results
|